Weather History for Charlotte, MI

Change the Weather History Date:

Monday, October 31, 2011

  Actual Average (KLAN) Record (KLAN)
Temperature  
Mean Temperature 44 °F 45 °F  
Max Temperature 46 °F 54 °F 77 °F (1950)
Min Temperature 41 °F 37 °F 15 °F (1879)
Degree Days  
Heating Degree Days 21 20  
Month to date heating degree days 461  
Since 1 July heating degree days 650  
Cooling Degree Days 0 0  
Month to date cooling degree days 7  
Year to date cooling degree days 625  
Moisture  
Dew Point 38 °F    
Average Humidity 77    
Maximum Humidity 87    
Minimum Humidity 66    
Precipitation  
Precipitation 0.00 in 0.08 in 2.00 in (1875)
Month to date precipitation 2.53  
Year to date precipitation 27.12  
Snow  
Snow 0.00 in 0.00 in 0.30 in (1875)
Month to date snowfall 0.4  
Since 1 July snowfall 0.4  
Since 1 September snowfall 0.4  
Snow Depth -    
Sea Level Pressure  
Sea Level Pressure 30.02 in    
Wind  
Wind Speed 6 mph (South)    
Max Wind Speed 15 mph    
Max Gust Speed -    
Visibility 10 miles    
Events Rain    
T = Trace of Precipitation, MM = Missing Value Source: NWS Daily Summary

Daily Weather History Graph

Daily Weather History Graph

Search for Another Location

Airport:

Trip Planner

Search our weather history database for the weather conditions in past years. The results will help you decide how hot, cold, wet, or windy it might be!

Date:

Astronomy

Oct. 31, 2011 Rise Set
Actual Time 8:11 AM EDT 6:33 PM EDT
Civil Twilight 7:42 AM EDT 7:02 PM EDT
Nautical Twilight 7:08 AM EDT 7:36 PM EDT
Astronomical Twilight 6:36 AM EDT 8:08 PM EDT
Moon 1:20 PM EDT (10/31) 11:06 PM EDT (10/31)
Length of Visible Light 11h 20m
Length of Day
10h 22m
Waxing Crescent, 29% of the Moon is Illuminated
Oct 31
Waxing Crescent
Nov 2
First Quarter
Nov 10
Full
Nov 18
Last Quarter
Nov 25
New

Hourly Weather History & Observations

Time (EDT) Temp. Windchill Dew Point Humidity Pressure Visibility Wind Dir Wind Speed Gust Speed Precip Events Conditions
12:15 AM 44.6 °F 39.7 °F 39.2 °F 81% 30.03 in 10.0 mi SSE 9.2 mph - N/A   Overcast
12:35 AM 44.6 °F 37.8 °F 37.4 °F 76% 30.03 in 10.0 mi South 15.0 mph - N/A   Drizzle
12:55 AM 44.6 °F 38.8 °F 39.2 °F 81% 30.04 in 10.0 mi South 11.5 mph - N/A   Light Drizzle
1:15 AM 44.6 °F 40.2 °F 39.2 °F 81% 30.04 in 10.0 mi South 8.1 mph - N/A   Light Drizzle
1:35 AM 44.6 °F 40.7 °F 41.0 °F 87% 30.04 in 10.0 mi South 6.9 mph - N/A   Drizzle
1:55 AM 44.6 °F 41.4 °F 41.0 °F 87% 30.04 in 10.0 mi South 5.8 mph - N/A   Light Drizzle
2:15 AM 44.6 °F 41.4 °F 41.0 °F 87% 30.03 in 10.0 mi SSE 5.8 mph - N/A   Light Drizzle
2:35 AM 44.6 °F 40.7 °F 41.0 °F 87% 30.03 in 10.0 mi SE 6.9 mph - N/A   Overcast
2:55 AM 44.6 °F 40.7 °F 41.0 °F 87% 30.02 in 10.0 mi SE 6.9 mph - N/A Rain Light Rain
3:15 AM 44.6 °F 42.2 °F 39.2 °F 81% 30.01 in 10.0 mi SE 4.6 mph - N/A   Overcast
3:35 AM 44.6 °F 42.2 °F 39.2 °F 81% 30.01 in 10.0 mi SSE 4.6 mph - N/A   Light Drizzle
3:55 AM 44.6 °F - 39.2 °F 81% 30.00 in 10.0 mi Calm Calm - N/A   Light Drizzle
4:16 AM 44.6 °F 42.2 °F 39.2 °F 81% 30.00 in 10.0 mi SE 4.6 mph - N/A   Overcast
4:35 AM 44.6 °F 40.7 °F 37.4 °F 76% 29.99 in 10.0 mi ESE 6.9 mph - N/A   Overcast
4:55 AM 44.6 °F 42.2 °F 35.6 °F 71% 29.98 in 10.0 mi ESE 4.6 mph - N/A   Overcast
5:15 AM 42.8 °F 41.1 °F 35.6 °F 76% 29.98 in 10.0 mi ESE 3.5 mph - N/A   Scattered Clouds
5:35 AM 42.8 °F 40.1 °F 35.6 °F 76% 29.98 in 10.0 mi SE 4.6 mph - N/A   Clear
6:15 AM 42.8 °F 41.1 °F 33.8 °F 70% 29.98 in 10.0 mi ESE 3.5 mph - N/A   Clear
6:35 AM 42.8 °F - 33.8 °F 70% 29.98 in 10.0 mi Calm Calm - N/A   Mostly Cloudy
6:55 AM 42.8 °F 41.1 °F 33.8 °F 70% 29.98 in 10.0 mi SE 3.5 mph - N/A   Overcast
7:15 AM 42.8 °F 38.6 °F 33.8 °F 70% 29.98 in 10.0 mi SE 6.9 mph - N/A   Overcast
7:55 AM 42.8 °F - 32.0 °F 66% 29.98 in 10.0 mi Calm Calm - N/A   Mostly Cloudy
8:15 AM 42.8 °F - 33.8 °F 70% 29.99 in 10.0 mi Calm Calm - N/A   Mostly Cloudy
8:35 AM 42.8 °F 41.1 °F 33.8 °F 70% 29.99 in 10.0 mi SE 3.5 mph - N/A   Overcast
8:55 AM 42.8 °F - 33.8 °F 70% 30.00 in 10.0 mi Calm Calm - N/A   Overcast
9:15 AM 42.8 °F 40.1 °F 33.8 °F 70% 30.00 in 10.0 mi SSE 4.6 mph - N/A   Overcast
9:35 AM 42.8 °F 39.3 °F 33.8 °F 70% 30.00 in 10.0 mi SSE 5.8 mph - N/A   Overcast
9:55 AM 44.6 °F 40.7 °F 35.6 °F 71% 30.01 in 10.0 mi South 6.9 mph - N/A Rain Light Rain
10:15 AM 44.6 °F 40.2 °F 35.6 °F 71% 30.01 in 10.0 mi South 8.1 mph - N/A   Overcast
10:35 AM 42.8 °F 37.5 °F 37.4 °F 81% 30.01 in 10.0 mi South 9.2 mph - N/A   Light Drizzle
10:55 AM 42.8 °F 39.3 °F 39.2 °F 87% 30.01 in 10.0 mi South 5.8 mph - N/A   Light Drizzle
11:15 AM 44.6 °F 41.4 °F 39.2 °F 81% 30.01 in 10.0 mi SSE 5.8 mph - N/A   Overcast
11:35 AM 46.4 °F 41.1 °F 39.2 °F 76% 30.01 in 10.0 mi South 11.5 mph - N/A   Overcast
11:55 AM 46.4 °F 42.9 °F 39.2 °F 76% 30.01 in 10.0 mi South 6.9 mph - N/A   Overcast
12:15 PM 46.4 °F 43.5 °F 39.2 °F 76% 30.02 in 10.0 mi South 5.8 mph - N/A   Overcast
12:35 PM 46.4 °F 42.9 °F 39.2 °F 76% 30.02 in 10.0 mi South 6.9 mph - N/A   Overcast
12:55 PM 46.4 °F 44.3 °F 39.2 °F 76% 30.02 in 10.0 mi South 4.6 mph - N/A   Overcast
1:15 PM 46.4 °F 43.5 °F 39.2 °F 76% 30.01 in 10.0 mi South 5.8 mph - N/A   Overcast
1:35 PM 46.4 °F 45.2 °F 39.2 °F 76% 30.01 in 10.0 mi South 3.5 mph - N/A   Overcast
1:55 PM 46.4 °F 45.2 °F 39.2 °F 76% 30.01 in 10.0 mi WSW 3.5 mph - N/A   Overcast
2:15 PM 46.4 °F 45.2 °F 39.2 °F 76% 30.01 in 10.0 mi SW 3.5 mph - N/A   Overcast
2:35 PM 46.4 °F 44.3 °F 39.2 °F 76% 30.01 in 10.0 mi SW 4.6 mph - N/A   Overcast
2:55 PM 46.4 °F 43.5 °F 39.2 °F 76% 30.01 in 10.0 mi West 5.8 mph - N/A   Overcast
3:15 PM 46.4 °F 45.2 °F 39.2 °F 76% 30.02 in 10.0 mi WSW 3.5 mph - N/A   Overcast
3:36 PM 46.4 °F 45.2 °F 39.2 °F 76% 30.02 in 10.0 mi SSW 3.5 mph - N/A   Overcast
3:55 PM 46.4 °F - 39.2 °F 76% 30.02 in 10.0 mi Calm Calm - N/A   Overcast
4:15 PM 46.4 °F 44.3 °F 39.2 °F 76% 30.03 in 10.0 mi SW 4.6 mph - N/A   Overcast
4:35 PM 46.4 °F 45.2 °F 39.2 °F 76% 30.03 in 10.0 mi SW 3.5 mph - N/A   Overcast
4:55 PM 46.4 °F 45.2 °F 41.0 °F 81% 30.03 in 10.0 mi SSW 3.5 mph - N/A   Overcast
5:15 PM 46.4 °F 45.2 °F 41.0 °F 81% 30.04 in 10.0 mi SW 3.5 mph - N/A   Overcast
5:36 PM 46.4 °F 45.2 °F 41.0 °F 81% 30.05 in 10.0 mi SW 3.5 mph - N/A   Overcast
5:56 PM 46.4 °F - 41.0 °F 81% 30.05 in 10.0 mi Calm Calm - N/A   Overcast
6:15 PM 46.4 °F - 41.0 °F 81% 30.05 in 10.0 mi Calm Calm - N/A   Overcast
6:35 PM 44.6 °F - 39.2 °F 81% 30.06 in 10.0 mi Calm Calm - N/A   Overcast
6:55 PM 44.6 °F - 39.2 °F 81% 30.07 in 10.0 mi Calm Calm - N/A   Overcast
7:16 PM 44.6 °F - 37.4 °F 76% 30.08 in 10.0 mi Calm Calm - N/A   Overcast
7:35 PM 42.8 °F - 37.4 °F 81% 30.09 in 10.0 mi Calm Calm - N/A   Mostly Cloudy
7:56 PM 41.0 °F - 37.4 °F 87% 30.09 in 10.0 mi Calm Calm - N/A   Scattered Clouds
8:16 PM 37.4 °F - 35.6 °F 93% 30.11 in 10.0 mi Calm Calm - N/A   Clear
8:35 PM 37.4 °F - 35.6 °F 93% 30.11 in 10.0 mi Calm Calm - N/A   Clear
8:55 PM 35.6 °F - 33.8 °F 93% 30.11 in 10.0 mi Calm Calm - N/A   Clear
9:15 PM 35.6 °F - 35.6 °F 100% 30.12 in 10.0 mi Calm Calm - N/A   Clear
9:36 PM 35.6 °F - 33.8 °F 93% 30.13 in 10.0 mi Calm Calm - N/A   Clear
9:56 PM 35.6 °F - 33.8 °F 93% 30.12 in 4.0 mi Calm Calm - N/A   Clear
10:15 PM 32.0 °F - 32.0 °F 100% 30.13 in 2.5 mi Calm Calm - N/A   Clear
10:35 PM 33.8 °F - 33.8 °F 100% 30.13 in 7.0 mi Calm Calm - N/A   Clear
10:55 PM 32.0 °F - 32.0 °F 100% 30.14 in 10.0 mi Calm Calm - N/A   Clear
11:15 PM 32.0 °F - 32.0 °F 100% 30.14 in 0.8 mi Calm Calm - N/A   Mist
11:35 PM 32.0 °F - 32.0 °F 100% 30.14 in 5.0 mi Calm Calm - N/A   Clear
11:56 PM 32.0 °F - 32.0 °F 100% 30.15 in 1.0 mi Calm Calm - N/A   Mist